Location: The Saddle
(36.8333°N, 80.3417°W)
Time: 08:16:44
(UTC-05:00)

S-56A Canister/Altair - Pass Details

Date: 14 December 2023
Orbit: 640 x 2488 km, 38.9° (Epoch: 25 February)

Event Time Altitude Azimuth Distance (km) Brightness Sun altitude
Rises 09:23:43 0° 251° (WSW) 4,404 11.2 17.5°
Reaches altitude 10° 09:27:09 10° 251° (WSW) 3,138 10.5 18.0°
Maximum altitude 09:34:26 84° 164° (SSE) 897 8.3 18.9°
Drops below altitude 10° 09:39:31 10° 76° (ENE) 2,228 10.3 19.5°
Sets 09:41:36 0° 76° (ENE) 3,050 10.9 19.8°
